Meteo pe oră la Dzilebki

Astăzi, 5 Martie, Vineri

Timp Temperatura Precipitaţii Vânt Presiune Umiditate
00:00 -7°C° 0 mm 2 m/s 622 mmHg 49%
01:00 -7°C° 0 mm 2 m/s 622 mmHg 48%
02:00 -7°C° 0 mm 2 m/s 621 mmHg 46%
03:00 -7°C° 0 mm 2 m/s 621 mmHg 43%
04:00 -7°C° 0 mm 2 m/s 621 mmHg 43%
05:00 -7°C° 0 mm 2 m/s 620 mmHg 42%
06:00 -7°C° 0 mm 2 m/s 620 mmHg 42%
07:00 -3°C° 0 mm 1 m/s 621 mmHg 45%
08:00 -2°C° 0 mm 1 m/s 621 mmHg 48%
09:00 0°C° 0 mm 1 m/s 622 mmHg 52%
10:00 +1°C° 0 mm 1 m/s 622 mmHg 54%
11:00 +2°C° 0 mm 1 m/s 622 mmHg 56%
12:00 +2°C° 0 mm 1 m/s 622 mmHg 57%
13:00 +2°C° 0 mm 1 m/s 622 mmHg 60%
14:00 +2°C° 0 mm 1 m/s 622 mmHg 63%
15:00 +2°C° 0 mm 0 m/s 622 mmHg 66%
16:00 +1°C° 0 mm 1 m/s 621 mmHg 64%
17:00 0°C° 0 mm 1 m/s 621 mmHg 63%
18:00 -2°C° 0 mm 1 m/s 621 mmHg 61%
19:00 -4°C° 0 mm 2 m/s 621 mmHg 56%
20:00 -4°C° 0 mm 2 m/s 621 mmHg 50%
21:00 -5°C° 0 mm 2 m/s 622 mmHg 45%
22:00 -5°C° 0 mm 2 m/s 622 mmHg 42%
23:00 -5°C° 0 mm 2 m/s 622 mmHg 39%

Mâine, 6 Martie, Sâmbătă

Timp Temperatura Precipitaţii Vânt Presiune Umiditate
00:00 -4°C° 0 mm 2 m/s 622 mmHg 36%
01:00 -5°C° 0 mm 3 m/s 622 mmHg 35%
02:00 -5°C° 0 mm 3 m/s 622 mmHg 33%
03:00 -5°C° 0 mm 3 m/s 622 mmHg 32%
04:00 -5°C° 0 mm 3 m/s 622 mmHg 33%
05:00 -5°C° 0 mm 3 m/s 622 mmHg 33%
06:00 -5°C° 0 mm 3 m/s 622 mmHg 34%
07:00 -2°C° 0 mm 2 m/s 622 mmHg 40%
08:00 +1°C° 0 mm 2 m/s 623 mmHg 46%
09:00 +4°C° 0 mm 1 m/s 624 mmHg 51%
10:00 +4°C° 0 mm 1 m/s 624 mmHg 53%
11:00 +5°C° 0 mm 1 m/s 624 mmHg 55%
12:00 +6°C° 0 mm 1 m/s 624 mmHg 57%
13:00 +5°C° 0 mm 2 m/s 623 mmHg 58%
14:00 +5°C° 0 mm 2 m/s 623 mmHg 59%
15:00 +5°C° 0 mm 2 m/s 622 mmHg 59%
16:00 +3°C° 0 mm 2 m/s 621 mmHg 58%
17:00 0°C° 0 mm 3 m/s 620 mmHg 56%
18:00 -1°C° 0 mm 3 m/s 619 mmHg 54%
19:00 -2°C° 0 mm 3 m/s 619 mmHg 50%
20:00 -3°C° 0 mm 4 m/s 619 mmHg 46%
21:00 -3°C° 0 mm 4 m/s 618 mmHg 41%
22:00 -4°C° 0 mm 4 m/s 618 mmHg 41%
23:00 -4°C° 0 mm 4 m/s 617 mmHg 41%

Poimâine, 7 Martie, Duminică

Timp Temperatura Precipitaţii Vânt Presiune Umiditate
00:00 -4°C° 0 mm 4 m/s 617 mmHg 40%
01:00 -4°C° 0 mm 4 m/s 617 mmHg 42%
02:00 -4°C° 0 mm 4 m/s 616 mmHg 43%
03:00 -4°C° 0 mm 4 m/s 616 mmHg 45%
04:00 -4°C° 0 mm 4 m/s 617 mmHg 47%
05:00 -4°C° 0 mm 3 m/s 617 mmHg 49%
06:00 -4°C° 0 mm 3 m/s 617 mmHg 50%
07:00 -4°C° 0 mm 3 m/s 618 mmHg 57%
08:00 -2°C° 0 mm 3 m/s 619 mmHg 63%
09:00 -2°C° 0 mm 2 m/s 620 mmHg 69%
10:00 -2°C° 0.1 mm 3 m/s 621 mmHg 74%
11:00 -2°C° 0.1 mm 3 m/s 621 mmHg 79%
12:00 -4°C° 0.1 mm 3 m/s 621 mmHg 83%
13:00 -4°C° 0.2 mm 3 m/s 621 mmHg 83%
14:00 -5°C° 0.2 mm 3 m/s 621 mmHg 83%
15:00 -6°C° 0.2 mm 3 m/s 621 mmHg 83%
16:00 -7°C° 0.2 mm 3 m/s 621 mmHg 84%
17:00 -7°C° 0.2 mm 2 m/s 620 mmHg 85%
18:00 -8°C° 0.2 mm 2 m/s 620 mmHg 86%
19:00 -8°C° 0.1 mm 2 m/s 621 mmHg 86%
20:00 -9°C° 0.1 mm 2 m/s 621 mmHg 85%
21:00 -8°C° 0.1 mm 1 m/s 621 mmHg 85%
22:00 -8°C° 0 mm 1 m/s 621 mmHg 84%
23:00 -8°C° 0 mm 1 m/s 621 mmHg 83%

8 Martie, Luni

Timp Temperatura Precipitaţii Vânt Presiune Umiditate
00:00 -8°C° 0 mm 1 m/s 621 mmHg 82%
01:00 -8°C° 0 mm 1 m/s 621 mmHg 80%
02:00 -8°C° 0 mm 1 m/s 621 mmHg 78%
03:00 -8°C° 0 mm 1 m/s 621 mmHg 76%
04:00 -8°C° 0 mm 1 m/s 621 mmHg 77%
05:00 -8°C° 0 mm 1 m/s 621 mmHg 77%
06:00 -9°C° 0 mm 1 m/s 621 mmHg 77%
07:00 -7°C° 0 mm 1 m/s 621 mmHg 76%
08:00 -6°C° 0 mm 1 m/s 622 mmHg 75%
09:00 -6°C° 0 mm 2 m/s 622 mmHg 74%
10:00 -5°C° 0 mm 2 m/s 622 mmHg 76%
11:00 -5°C° 0 mm 2 m/s 622 mmHg 77%
12:00 -4°C° 0 mm 2 m/s 621 mmHg 79%
13:00 -4°C° 0 mm 2 m/s 621 mmHg 80%
14:00 -4°C° 0 mm 2 m/s 620 mmHg 82%
15:00 -4°C° 0 mm 2 m/s 620 mmHg 83%
16:00 -5°C° 0 mm 2 m/s 620 mmHg 86%
17:00 -3°C° 0 mm 1 m/s 619 mmHg 90%
18:00 -4°C° 0 mm 1 m/s 619 mmHg 93%
19:00 -4°C° 0 mm 1 m/s 619 mmHg 93%
20:00 -4°C° 0 mm 1 m/s 619 mmHg 92%
21:00 -6°C° 0 mm 0 m/s 619 mmHg 92%
22:00 -6°C° 0.1 mm 1 m/s 618 mmHg 93%
23:00 -6°C° 0.1 mm 1 m/s 618 mmHg 94%

9 Martie, Marţi

Timp Temperatura Precipitaţii Vânt Presiune Umiditate
00:00 -6°C° 0.1 mm 1 m/s 618 mmHg 95%
01:00 -6°C° 0.5 mm 1 m/s 618 mmHg 95%
02:00 -6°C° 0.5 mm 1 m/s 618 mmHg 95%
03:00 -6°C° 0.5 mm 1 m/s 618 mmHg 95%
04:00 -6°C° 0.3 mm 1 m/s 618 mmHg 95%
05:00 -6°C° 0.3 mm 1 m/s 618 mmHg 96%
06:00 -7°C° 0.3 mm 1 m/s 618 mmHg 96%
07:00 -6°C° 0.1 mm 1 m/s 618 mmHg 94%
08:00 -6°C° 0.1 mm 1 m/s 618 mmHg 93%
09:00 -4°C° 0.1 mm 1 m/s 619 mmHg 92%
10:00 -6°C° 0.1 mm 2 m/s 619 mmHg 90%
11:00 -5°C° 0.1 mm 2 m/s 619 mmHg 89%
12:00 -5°C° 0.1 mm 2 m/s 619 mmHg 87%
13:00 -5°C° 0.1 mm 2 m/s 619 mmHg 87%
14:00 -5°C° 0.1 mm 2 m/s 619 mmHg 87%
15:00 -5°C° 0.1 mm 2 m/s 619 mmHg 87%
16:00 -6°C° 0.1 mm 2 m/s 619 mmHg 88%
17:00 -6°C° 0.1 mm 1 m/s 619 mmHg 90%
18:00 -7°C° 0.1 mm 1 m/s 619 mmHg 92%
19:00 -8°C° 0 mm 2 m/s 619 mmHg 87%
20:00 -9°C° 0 mm 2 m/s 619 mmHg 82%
21:00 -9°C° 0 mm 2 m/s 619 mmHg 78%
22:00 -9°C° 0 mm 2 m/s 619 mmHg 76%
23:00 -10°C° 0 mm 2 m/s 619 mmHg 74%

10 Martie, Miercuri

Timp Temperatura Precipitaţii Vânt Presiune Umiditate
00:00 -12°C° 0 mm 3 m/s 619 mmHg 72%
01:00 -10°C° 0 mm 2 m/s 619 mmHg 72%
02:00 -10°C° 0 mm 2 m/s 619 mmHg 72%
03:00 -10°C° 0 mm 2 m/s 619 mmHg 73%
04:00 -10°C° 0.1 mm 2 m/s 619 mmHg 74%
05:00 -12°C° 0.1 mm 2 m/s 619 mmHg 76%
06:00 -12°C° 0.1 mm 2 m/s 620 mmHg 78%
07:00 -10°C° 0.2 mm 2 m/s 620 mmHg 80%
08:00 -8°C° 0.2 mm 2 m/s 621 mmHg 81%
09:00 -7°C° 0.2 mm 2 m/s 622 mmHg 83%
10:00 -7°C° 0.3 mm 2 m/s 622 mmHg 84%
11:00 -6°C° 0.3 mm 2 m/s 622 mmHg 86%
12:00 -7°C° 0.3 mm 3 m/s 622 mmHg 87%
13:00 -7°C° 0.4 mm 3 m/s 622 mmHg 88%
14:00 -7°C° 0.4 mm 3 m/s 621 mmHg 89%
15:00 -8°C° 0.4 mm 3 m/s 621 mmHg 89%
16:00 -8°C° 0.3 mm 2 m/s 621 mmHg 91%
17:00 -9°C° 0.3 mm 2 m/s 620 mmHg 93%
18:00 -10°C° 0.3 mm 2 m/s 620 mmHg 95%
19:00 -10°C° 0.1 mm 2 m/s 620 mmHg 94%
20:00 -12°C° 0.1 mm 2 m/s 619 mmHg 93%
21:00 -10°C° 0.1 mm 1 m/s 619 mmHg 92%
22:00 -10°C° 0 mm 1 m/s 619 mmHg 90%
23:00 -10°C° 0 mm 1 m/s 619 mmHg 89%
Arată mai mult

Formular de consimțământ

Meteoprog și furnizorii noștri de servicii pot stoca și accesa date personale, precum cookies, identificatori de dispozitiv sau alte tehnologii similare pe dispozitivul dumneavoastră și procesa astfel de date pentru a personaliza conținutul și reclamele, dar și pentru a oferi caracteristici de social media și pentru a analiza traficul.

  • Stocarea și/sau accesarea informațiilor pe dispozitivul dumneavoastră

    Cookies, identificatori de dispozitiv sau alte informații pot fi stocate sau accesate pe dispozitiv în scopurile indicate mai sus.

  • Reclame și conținut personalizat, evaluarea reclamelor și a conținutului, informații despre audiențe și dezvoltarea produselor

    Reclamele și conținutul pot fi personalizate pe baza unui profil. Pot fi adăugate date suplimentare pentru a personaliza mai bine reclamele și conținutul. Performanța reclamelor și conținutului poate fi măsurată. Pot fi obținute informații despre utilizatorii care au văzut reclamele și conținutul. Aceste date pot fi utilizate pentru a dezvolta sau îmbunătăți experiența utilizatorilor, sistemele și software-ul.

Dând clic pe ‘Sunt de acord’, permiteți utilizarea cookie-urilor menționate, a identificatorilor de dispozitiv, balizelor web sau altor tehnologii similare. Setările pot fi modificate din browser-ul dispozitivului dumneavoastră.

În anumite scopuri, interesele legitime pot prima asupra consimțământului. Puteți citi mai multe informații în acest sens în Politica privind Confidențialitatea Datelor și Cookie.